Flag for U.S.A. Weather past 2 weeks in Bradenton, Florida, U.S.A.

Now
82 °F

Overcast.


Feels Like: 86 °F
Forecast: 79 / 84 °F
Wind: 9 mph from South

Location: Sarasota-Bradenton International Airport

Current Time: Aug 3, 2015 at 5:17:07 AM

Latest Report: Aug 3, 2015 at 4:53 AM


Visibility: 10 mi

Pressure: 29.86 "Hg

Humidity: 70%

Dew point: 71 °F

Location of BradentonLocation

Historic Weather in Bradenton — Graph

°F

Bradenton temperature yesterday

Maximum temperature yesterday: 84 °F (at 12:53 PM)
Minimum temperature yesterday: 76 °F (at 3:53 AM)
Average temperature yesterday: 80 °F

Past Weeks' High & Low Weather Summary

 TemperatureHumidityPressure
High90 °F (Jul 22, 1:53 PM)100% (Jul 19, 5:53 AM)30.06 "Hg (Jul 19, 5:53 AM)
Low73 °F (Aug 1, 11:53 PM)61% (Jul 19, 12:53 PM)29.83 "Hg (Jul 26, 3:53 AM)
Average82 °F80%29.96 "Hg
* Reported Jul 19 3:53 AM — Aug 3 3:53 AM, Bradenton, Weather by CustomWeather, © 2015

Note: Actual official high and low records may vary slightly from our data, if they occured in-between our weather recording intervals... More about our weather records

Advertising

Bradenton weather history for previous 24 hours

 ConditionsComfort  
Time TempWeatherWind HumidityBarometerVisibility
3:53 AM
Mon, Aug 3
82 °FOvercast.9 mph67%29.87 "Hg10 mi
2:53 AM81 °FPassing clouds.12 mph72%29.88 "Hg10 mi
1:53 AM80 °FClear.12 mph74%29.90 "Hg10 mi
12:53 AM80 °FClear.13 mph81%29.93 "Hg10 mi
11:53 PM
Sun, Aug 2
82 °FPassing clouds.13 mph65%29.93 "Hg10 mi
10:53 PM82 °FClear.12 mph67%29.94 "Hg10 mi
9:53 PM82 °FPassing clouds.10 mph70%29.92 "Hg10 mi
8:53 PM81 °FSunny.12 mph69%29.92 "Hg10 mi
7:53 PM82 °FSunny.12 mph65%29.92 "Hg10 mi
6:53 PM82 °FScattered clouds.12 mph67%29.92 "Hg10 mi
5:53 PM82 °FScattered clouds.10 mph70%29.92 "Hg10 mi
4:53 PM84 °FOvercast.15 mph67%29.93 "Hg10 mi
3:53 PM83 °FOvercast.18 mph68%29.93 "Hg10 mi
2:53 PM83 °FScattered clouds.16 mph68%29.95 "Hg10 mi
1:53 PM81 °FPartly sunny.20 mph74%29.97 "Hg10 mi
12:53 PM84 °FLight rain. Partly sunny.13 mph77%29.96 "Hg10 mi
11:53 AM82 °FSunny.13 mph70%29.95 "Hg10 mi
10:53 AM80 °FBroken clouds.18 mph76%29.94 "Hg10 mi
9:53 AM82 °FSunny.10 mph72%29.92 "Hg10 mi
8:53 AM79 °FPassing clouds.7 mph88%29.92 "Hg10 mi
7:53 AM76 °FClear.8 mph94%29.90 "Hg10 mi
6:53 AM76 °FPassing clouds.6 mph97%29.90 "Hg8 mi
5:53 AM76 °FOvercast.7 mph94%29.89 "Hg9 mi
Weather by CustomWeather, © 2015

See weather overviewHow to use our weather pages